Theta_e
316 315 315 315 315 315 315 314 314 315 314 314 313 312 310 310 306 304 304 306 305 300 303 300 296 303 305 306 306 306 306 305 305 306 305 306 306 306 307 312 315 316 318 321 323 323 325 325 326 326 326 325 325 325 324 323 323 325 325 326 326 326 326 325 324 324 324 324 324 323 323 322 322 322
316 315 315 315 314 315 315 315 315 314 314 314 313 313 313 312 309 308 305 306 309 309 298 303 301 298 302 305 305 305 306 303 304 304 305 305 306 305 306 308 311 312 314 317 319 321 323 324 325 325 325 325 325 325 325 324 324 325 325 325 325 324 324 324 323 323 322 323 323 323 323 323 323 323
315 314 314 315 315 315 315 315 315 314 314 314 314 313 314 312 312 310 309 305 310 313 311 309 304 305 301 303 304 303 305 304 304 304 304 305 302 301 303 303 307 310 314 315 317 319 322 323 324 324 325 326 325 325 325 324 324 324 324 324 323 322 322 322 321 321 321 321 321 322 322 322 322 322
315 315 314 314 315 316 316 315 315 315 314 314 314 314 313 313 313 312 310 307 307 313 313 313 308 305 306 303 304 305 306 306 300 306 306 305 300 302 304 302 303 306 310 311 313 315 317 319 322 323 324 325 325 325 324 324 324 323 323 322 321 320 319 319 319 319 319 319 319 319 319 319 320 320
316 315 315 315 316 316 315 315 315 315 315 314 314 314 314 313 313 312 310 307 307 311 314 313 314 312 306 305 306 307 307 306 304 302 305 304 304 304 304 304 301 302 304 307 310 312 313 314 317 319 321 322 323 323 323 324 323 321 319 318 318 318 318 318 319 319 318 318 318 317 317 318 318 319
316 316 315 315 316 316 315 315 315 315 315 315 314 313 313 313 313 313 311 309 308 307 311 312 310 312 307 310 306 308 307 308 305 304 305 304 304 305 305 304 304 302 303 305 307 309 310 310 311 312 313 317 318 320 321 318 316 315 314 312 311 311 313 315 316 317 316 316 316 316 316 316 317 317
316 315 315 315 316 316 315 314 315 315 315 315 314 313 313 312 313 313 313 311 308 307 309 312 311 310 306 308 309 306 309 311 310 308 308 308 306 304 304 304 303 302 303 305 306 307 308 308 309 309 309 310 311 312 313 313 311 310 310 310 310 309 309 310 311 312 312 312 313 313 313 314 315 315
315 315 314 314 315 315 314 314 314 314 314 314 313 312 312 312 312 312 312 312 311 310 308 310 311 310 310 308 307 308 308 308 307 308 309 308 307 306 304 303 304 303 303 304 304 305 306 306 307 308 308 308 308 309 309 309 308 308 307 307 307 307 306 307 307 308 308 309 310 311 311 311 312 312
315 314 314 314 314 314 313 313 313 313 312 313 312 312 312 312 312 312 312 312 311 310 309 309 311 311 309 310 306 305 306 303 302 300 303 305 306 306 305 302 303 300 301 301 302 302 303 304 305 306 307 307 306 307 306 305 305 304 304 304 304 304 305 304 304 305 305 306 306 307 309 309 310 310
314 314 314 314 314 314 313 313 313 313 312 312 311 311 311 312 312 311 311 311 310 310 310 310 310 309 310 304 303 302 305 305 302 298 301 297 299 300 299 300 302 302 302 302 302 300 301 302 302 304 305 305 305 305 304 303 303 302 302 303 303 302 303 303 303 303 303 303 304 304 305 306 307 307
314 314 314 314 314 314 314 313 313 312 312 312 311 311 311 311 311 311 311 310 310 310 309 309 310 310 310 310 309 304 303 305 306 306 303 299 298 296 299 301 302 301 301 300 299 300 300 299 299 301 302 303 303 303 303 302 301 300 300 301 302 302 302 301 301 301 302 302 302 302 302 303 304 305
313 313 314 314 314 314 314 314 313 313 312 312 311 312 311 311 311 311 310 310 309 309 309 308 308 308 308 305 302 292 293 295 295 295 299 302 301 299 297 299 302 303 299 300 300 298 297 297 297 298 300 300 301 301 300 300 299 298 299 300 301 301 301 301 301 300 300 300 300 301 302 302 302 304
313 313 313 313 314 311 304 303 305 306 307 313 311 311 311 310 310 310 310 309 309 308 308 307 307 306 305 306 304 300 297 298 304 300 297 299 299 301 299 298 297 301 299 298 297 298 298 297 297 296 296 298 298 298 298 298 297 297 299 300 300 300 301 301 300 300 300 299 299 300 300 301 301 302
312 312 313 312 302 300 299 299 299 300 300 302 310 313 312 310 310 309 308 308 308 308 306 307 307 306 306 306 305 305 305 303 297 296 293 297 297 295 298 298 296 296 295 296 296 297 297 296 296 295 295 297 295 297 297 298 297 297 300 300 300 300 300 300 300 299 299 299 299 299 299 300 301 301
310 311 312 312 305 300 298 299 298 299 300 299 299 301 303 304 311 310 308 308 308 306 306 307 306 306 306 307 305 304 305 301 299 299 297 299 297 297 297 298 294 295 297 295 295 297 297 296 296 296 296 296 294 294 295 297 297 298 299 300 299 299 299 299 300 299 299 298 298 298 299 299 300 301
310 310 310 311 311 311 309 309 306 300 298 298 299 299 299 300 300 302 308 306 305 306 305 305 306 306 306 307 305 304 297 298 296 296 297 298 298 297 296 297 299 296 296 297 296 299 296 295 296 297 296 295 294 293 295 297 298 299 299 299 299 299 299 299 299 299 298 298 298 299 299 299 300 300
310 310 309 309 310 312 299 301 308 309 306 297 296 297 297 297 298 300 301 302 307 311 308 307 306 307 306 304 303 301 299 301 300 298 297 296 296 298 298 299 299 298 294 297 295 297 295 295 294 295 296 295 294 293 295 297 298 299 299 299 298 299 298 299 298 298 298 298 298 299 299 299 299 299
309 309 309 309 308 309 308 308 309 310 310 309 304 302 301 303 300 296 297 298 297 299 307 309 308 308 306 306 305 302 301 301 299 298 299 297 297 297 298 301 301 292 294 297 295 296 293 292 295 295 296 294 293 292 295 298 299 299 299 298 298 298 298 298 297 297 297 297 298 298 298 298 298 298
308 308 309 308 308 306 306 306 305 307 308 308 308 307 305 305 305 305 305 303 303 303 304 306 308 310 309 309 307 306 304 305 306 305 303 301 300 299 298 296 294 289 291 295 295 297 295 289 293 294 294 291 291 291 294 297 298 298 298 298 298 298 297 297 296 296 296 297 297 298 298 298 298 297
302 301 301 301 300 300 301 299 298 299 303 305 302 300 301 302 302 303 301 301 301 303 307 307 307 308 308 305 306 304 306 304 304 299 298 296 295 297 299 299 295 295 291 293 296 296 297 288 292 292 288 289 288 287 286 291 296 296 296 296 297 296 296 296 296 296 296 296 297 297 297 297 297 296
298 299 297 298 298 299 299 296 297 297 295 299 298 299 299 301 301 299 300 298 298 298 298 299 299 300 300 300 300 300 300 298 298 298 298 297 295 297 297 297 297 296 290 290 295 296 297 290 291 290 284 285 287 286 286 286 291 294 295 296 296 296 296 296 296 296 296 296 296 296 296 296 295 295
296 294 290 292 295 296 297 295 295 296 295 296 296 296 294 293 294 295 294 296 298 295 294 295 295 296 297 298 298 299 299 299 297 297 298 295 295 297 297 297 297 294 290 291 293 292 296 287 289 290 284 282 283 285 286 286 286 291 294 295 296 295 295 295 295 294 295 295 295 295 295 295 294 292
293 293 292 290 292 293 293 294 295 295 294 295 294 295 294 294 294 296 294 296 295 294 294 295 294 294 293 294 295 295 295 296 295 298 299 296 296 297 297 296 296 296 296 290 292 294 293 289 288 289 287 289 287 283 284 285 285 287 289 291 292 293 293 293 293 293 293 293 294 294 294 294 293 286
291 291 291 290 293 294 294 294 294 294 294 294 294 293 293 293 293 293 291 290 291 291 291 292 292 292 291 291 291 291 292 292 292 294 296 297 298 296 296 296 296 296 295 287 293 295 293 291 290 290 293 294 293 280 280 282 285 286 287 287 288 290 291 291 292 293 293 293 293 293 293 293 290 283
290 290 290 290 291 293 293 293 293 293 293 292 292 292 291 291 291 291 290 289 289 291 290 290 291 292 292 293 293 293 292 293 293 293 293 294 296 297 296 296 296 295 296 288 292 293 293 289 290 287 288 289 287 279 281 281 283 284 285 286 286 287 287 288 289 289 291 292 292 293 293 292 288 285
289 290 290 290 290 291 292 292 292 293 293 292 289 290 292 292 292 289 289 289 290 290 291 291 292 292 292 293 293 292 292 292 292 292 293 293 294 296 297 296 296 295 297 290 292 292 293 289 290 288 287 288 289 285 281 279 281 282 283 284 285 286 287 286 286 286 287 288 288 290 290 291 288 287
289 289 289 289 288 289 289 290 291 292 292 290 290 291 292 291 291 289 288 289 289 290 290 290 290 291 291 292 291 292 292 292 291 292 292 292 292 292 293 294 296 297 291 288 289 291 293 293 289 290 290 289 290 284 282 281 279 280 280 281 282 283 283 285 284 284 284 285 285 290 291 291 288 287
288 288 288 288 289 289 289 290 290 290 290 288 290 291 291 290 288 287 288 288 288 288 289 289 289 290 290 291 291 291 291 291 291 292 291 291 291 291 291 291 290 290 289 287 288 289 290 293 290 289 291 290 289 289 288 284 280 279 279 281 280 280 280 282 282 281 281 281 283 286 285 286 285 284
287 287 288 288 288 288 288 288 288 288 288 289 289 289 289 287 287 287 287 288 288 288 288 289 289 289 289 290 291 290 290 289 289 288 289 289 289 289 289 288 288 288 287 287 287 288 289 289 291 288 288 289 290 290 290 288 281 279 280 279 277 278 278 280 280 279 279 279 281 282 283 282 280 281
286 287 287 287 286 286 286 286 286 286 286 286 286 286 286 286 286 287 287 287 287 287 288 288 288 289 289 289 289 288 288 289 290 289 290 290 290 288 288 288 289 287 286 286 286 287 287 288 289 289 288 288 289 290 290 288 283 281 280 279 278 277 277 278 278 278 278 278 278 279 278 278 278 279
285 285 285 286 286 286 286 286 286 285 286 285 286 286 286 287 287 287 287 287 287 287 287 287 288 288 288 289 288 289 289 289 289 289 289 289 289 289 288 287 287 287 285 282 282 283 285 286 287 287 288 289 288 288 289 288 288 279 279 280 278 279 277 277 277 277 278 277 276 275 274 274 275 276
286 286 285 286 286 286 286 286 286 286 286 286 286 286 286 286 287 286 286 286 287 287 287 287 288 288 288 288 288 288 288 288 288 288 288 288 288 288 287 286 287 287 287 282 281 281 280 283 285 286 286 287 287 288 287 287 287 282 278 279 278 278 275 276 276 276 276 275 274 273 273 274 273 274
286 286 286 286 286 286 286 286 286 286 286 286 286 286 286 286 286 286 286 286 287 287 287 287 287 287 287 287 288 287 288 288 288 287 287 287 287 287 287 286 287 287 287 286 282 282 280 280 279 280 282 282 281 283 285 284 285 281 279 278 278 276 275 276 276 275 275 273 273 273 272 272 272 273
285 285 285 285 285 285 285 285 286 286 286 286 286 286 286 286 286 286 286 286 286 287 286 287 287 287 287 287 287 287 287 287 287 287 287 287 287 287 287 286 286 287 286 287 285 283 280 279 280 280 280 279 280 280 282 284 284 279 279 278 277 276 275 275 276 275 274 274 273 271 271 271 272 272
285 285 285 285 285 285 285 285 285 285 285 285 285 286 286 286 286 286 286 286 286 286 286 286 287 287 287 287 287 287 287 287 287 287 286 287 287 287 286 286 286 286 286 286 285 282 280 279 279 279 279 280 280 281 280 282 281 278 277 277 277 276 274 275 275 274 274 273 274 272 271 271 270 272
285 284 284 284 284 285 284 285 285 285 285 285 285 285 285 286 286 286 286 286 286 286 286 286 286 286 286 287 287 287 287 287 287 287 286 286 285 285 286 286 286 286 286 286 285 280 279 279 279 278 277 279 278 278 279 281 283 280 277 276 277 276 275 274 275 274 273 273 273 273 271 270 270 270
284 284 284 284 284 284 284 284 284 284 285 285 285 285 285 285 286 286 286 286 286 286 286 286 286 287 287 287 286 286 286 286 286 286 286 286 285 285 285 285 285 285 285 285 284 279 279 279 279 279 278 278 277 277 280 275 278 282 280 279 277 276 274 274 273 272 273 273 273 273 273 273 271 271
282 283 283 283 283 283 284 284 284 284 284 285 285 285 285 285 286 286 286 286 286 286 286 286 286 286 287 286 286 286 286 287 287 286 286 286 284 284 284 284 284 284 284 285 282 279 279 279 278 279 279 278 278 279 279 276 272 276 281 280 277 275 275 273 272 271 272 273 272 273 273 272 272 271
281 281 282 282 282 283 282 283 283 283 283 283 284 284 284 285 285 285 285 285 286 286 286 286 286 286 286 286 286 286 286 286 286 286 286 286 285 284 284 284 283 284 284 283 280 279 278 278 279 279 280 280 279 281 283 281 275 276 279 282 279 275 274 273 272 272 272 272 272 272 271 273 273 274
281 281 281 282 282 282 283 283 283 283 283 283 284 284 284 284 284 284 285 285 285 285 285 285 286 286 286 286 286 286 286 286 286 286 286 286 286 285 285 285 284 284 283 283 280 277 277 277 279 280 280 282 280 276 275 275 273 275 277 280 281 278 275 275 273 273 272 272 271 269 268 270 268 270
279 279 279 280 281 281 281 281 281 281 281 281 282 282 283 283 283 283 283 283 284 284 285 285 285 286 286 286 286 286 285 286 286 286 286 286 286 285 285 284 284 284 283 282 282 279 277 279 280 282 281 276 274 278 276 274 273 272 273 276 280 280 279 278 275 274 272 272 271 269 267 267 266 267
278 278 279 280 279 280 280 280 280 280 280 281 281 282 282 282 282 282 282 282 283 284 284 285 285 285 285 286 286 286 285 285 285 286 286 286 286 285 285 284 283 283 283 282 282 282 282 281 279 279 277 277 277 276 275 277 276 273 272 274 276 280 279 278 279 277 274 272 270 268 266 266 267 265
276 276 277 278 279 279 279 279 280 280 280 281 281 282 281 281 281 281 282 282 282 282 282 283 284 284 284 285 285 286 285 285 285 285 286 286 286 285 285 285 284 283 283 283 284 283 279 278 278 277 277 276 276 277 276 277 277 272 272 271 273 275 276 278 278 277 276 276 276 273 271 268 266 264
274 275 276 277 276 275 275 275 276 276 277 278 279 279 279 279 280 281 282 281 281 281 282 282 282 283 284 285 285 285 285 285 285 285 285 285 286 286 285 285 285 284 283 283 283 280 276 276 276 277 275 275 276 276 276 277 275 272 272 272 272 272 272 274 275 276 276 277 276 275 275 274 273 273
272 272 272 272 272 273 273 274 274 275 276 277 278 278 279 280 280 281 281 282 282 282 282 283 283 283 283 282 282 281 283 285 285 285 285 285 285 285 285 285 285 284 283 283 282 279 276 274 275 276 276 276 276 276 276 276 274 271 270 270 269 271 271 271 270 270 271 271 275 275 275 275 274 274
Wind_Speed
14 13 14 14 12 12 10 10 10 10 10 10 10 10 11 10 11 11 13 12 10 2 7 3 3 6 5 7 6 6 6 8 8 5 6 8 7 10 15 17 18 19 20 21 23 23 23 24 24 22 20 19 18 18 18 18 18 19 19 19 20 20 19 17 17 16 16 16 16 17 14 14 14 15
12 12 12 12 12 11 10 11 10 10 11 10 11 10 11 10 13 12 14 16 7 9 3 6 4 2 6 6 6 6 6 9 8 5 6 7 7 11 15 17 18 18 19 19 21 23 24 24 23 21 21 20 19 19 19 18 19 19 20 21 21 21 18 16 17 17 16 16 16 14 14 16 16 15
11 13 14 12 12 10 11 10 10 10 10 11 10 11 10 11 13 13 12 13 12 7 11 6 6 6 5 5 6 4 6 7 8 6 6 7 10 13 11 15 15 16 18 19 19 21 23 23 23 22 22 21 21 21 20 19 18 20 22 22 20 17 15 14 14 14 15 15 14 13 12 14 17 19
11 13 14 13 12 10 10 10 10 10 11 11 11 11 11 12 12 12 12 14 17 9 10 8 5 7 6 5 6 7 6 7 9 6 7 8 9 7 8 12 14 15 16 18 17 19 19 20 22 23 23 23 23 23 23 22 22 23 20 18 15 14 13 12 12 12 12 13 13 11 11 12 15 18
12 13 13 13 13 11 11 10 10 10 11 11 11 11 11 12 11 12 12 14 15 11 10 9 10 7 6 5 7 8 6 6 5 6 7 5 5 6 7 8 11 14 15 16 17 18 18 18 19 20 20 21 22 22 22 21 21 18 16 14 13 12 11 13 15 13 12 13 11 11 10 11 13 15
11 11 13 13 13 12 13 11 11 11 11 11 11 11 12 12 12 12 12 13 12 15 9 10 5 8 6 9 6 9 8 8 6 7 7 6 6 6 7 7 8 12 15 16 17 17 17 17 18 18 18 18 18 18 18 17 16 15 13 10 8 8 11 13 13 12 11 12 11 11 11 12 14 15
12 12 13 13 12 10 11 12 12 12 12 11 13 13 11 12 12 12 13 12 13 13 12 9 11 7 5 9 8 7 8 10 9 8 8 8 6 7 7 7 7 10 13 16 17 16 16 17 17 17 17 16 16 16 16 15 13 13 12 12 11 11 10 10 12 12 12 12 12 11 10 11 13 14
12 13 12 13 12 11 12 11 11 11 11 11 11 12 11 12 13 12 12 13 12 11 12 8 11 7 8 8 7 7 7 8 7 7 8 6 5 5 6 7 7 9 12 14 14 14 15 16 16 17 16 16 15 16 15 15 14 14 13 12 12 12 11 12 12 12 12 12 12 11 10 11 11 11
12 12 12 12 11 11 13 11 11 10 12 12 10 11 10 11 11 10 11 12 11 12 13 10 8 7 7 8 5 5 7 6 6 4 6 7 7 7 6 4 6 9 11 12 13 13 14 16 16 16 16 17 17 16 16 15 14 14 13 13 13 13 13 13 13 13 12 11 11 11 12 11 12 12
12 12 12 12 11 12 13 12 11 11 13 11 11 11 10 10 10 11 11 10 11 12 13 11 11 7 10 7 6 5 7 6 7 5 7 4 5 6 5 6 7 6 6 7 8 10 13 15 16 16 17 18 17 17 17 16 16 15 14 14 14 14 14 14 14 13 12 12 13 13 13 13 13 12
12 12 12 12 12 13 13 13 12 12 12 11 12 12 11 11 11 11 11 10 11 12 12 11 11 10 9 9 10 7 7 8 8 9 8 7 5 6 8 9 7 6 8 10 12 11 11 12 11 13 16 16 17 17 17 16 17 16 16 16 15 15 15 14 14 14 13 13 13 13 13 13 13 13
12 12 12 12 12 13 13 12 12 12 12 11 12 10 10 11 12 12 11 10 11 11 11 11 10 9 10 8 7 1 2 4 4 5 7 10 7 9 8 10 10 8 8 9 9 9 10 10 11 11 13 16 16 16 15 16 16 17 16 15 15 16 16 15 15 14 14 14 14 14 13 13 13 14
12 11 11 12 12 13 15 17 15 14 14 11 11 11 11 11 11 11 10 10 10 10 10 10 6 7 7 7 7 7 6 8 12 7 8 9 7 8 8 8 8 8 8 8 6 8 8 10 9 9 9 10 14 13 15 13 16 16 14 13 16 17 16 15 15 15 15 15 14 14 14 14 14 15
11 11 11 12 17 18 18 19 19 18 17 17 14 11 10 12 11 11 10 10 10 11 12 12 11 12 11 10 9 10 11 9 5 3 5 8 7 6 9 8 6 8 7 7 8 9 7 8 8 6 8 9 9 8 9 10 11 15 19 17 17 17 16 16 16 16 16 16 15 15 16 15 15 15
10 10 11 11 13 15 16 16 20 20 20 19 18 19 17 15 13 12 12 12 12 12 12 11 11 12 12 11 9 9 9 8 9 9 6 9 5 7 8 11 3 6 10 9 8 11 10 10 11 11 11 9 8 8 10 14 17 18 17 18 18 18 18 18 18 18 17 16 16 16 17 16 16 16
10 10 10 10 10 10 12 11 13 16 20 21 21 20 20 20 18 15 12 10 10 10 10 10 11 11 12 11 8 9 6 6 5 7 8 9 9 10 9 8 9 5 11 10 10 12 5 8 11 10 9 8 8 9 12 16 17 17 17 18 19 19 18 18 18 17 17 17 16 16 16 16 15 15
10 9 10 10 9 9 15 13 10 9 10 15 21 22 21 19 20 20 20 17 13 9 11 11 11 10 9 9 7 6 7 6 9 7 9 7 8 10 11 12 10 8 10 6 5 11 6 9 8 10 9 8 8 10 13 18 18 18 19 19 19 19 18 18 17 17 17 16 15 15 15 15 15 15
9 10 9 9 9 8 9 9 12 11 11 9 8 10 11 12 15 17 20 22 22 18 14 13 14 9 6 11 6 7 6 7 8 7 11 8 10 10 14 15 11 0 9 10 6 9 3 6 7 11 9 8 8 9 13 19 19 19 19 18 18 18 18 17 17 16 15 16 15 15 15 15 15 16
8 8 8 7 7 5 6 6 8 8 9 9 9 9 10 11 12 11 11 11 12 13 14 14 15 12 9 10 8 7 7 10 9 9 11 9 10 9 7 6 1 3 5 7 5 11 3 7 7 11 8 6 8 6 11 16 17 18 19 18 18 18 18 16 15 15 16 16 17 16 16 16 16 16
1 2 3 3 3 3 4 4 7 8 5 5 5 7 6 6 6 7 9 12 12 12 11 11 11 10 10 12 9 7 7 7 7 7 7 4 4 6 10 12 2 6 5 8 9 6 9 5 8 5 1 3 6 5 6 11 16 15 17 18 19 18 16 16 16 17 17 17 16 17 18 18 16 15
1 1 2 2 2 1 0 1 4 4 1 2 4 6 7 7 6 6 7 11 14 14 15 15 15 14 13 12 12 11 10 6 4 4 5 7 4 7 11 12 7 7 6 7 9 7 12 4 7 4 0 2 5 4 6 5 11 15 16 16 16 16 17 16 17 16 16 16 16 16 17 18 15 14
0 2 5 4 2 1 0 3 4 4 3 3 3 4 4 5 6 6 4 4 5 8 10 12 13 14 14 16 17 15 14 13 8 6 11 5 5 10 9 12 9 4 6 8 11 5 10 3 3 3 2 2 4 5 6 6 6 10 13 18 16 16 16 16 16 16 16 17 16 16 17 17 14 8
4 4 4 4 3 2 3 5 4 4 2 3 3 3 4 6 7 6 4 5 5 5 5 6 5 6 7 8 7 8 12 14 12 10 11 5 6 10 10 9 8 10 8 8 13 9 4 5 4 5 1 5 3 2 3 5 5 5 6 8 9 13 14 16 16 17 17 17 18 17 18 17 14 5
4 4 5 4 5 6 6 5 5 5 4 3 3 3 5 6 8 0 2 3 3 4 4 5 4 5 4 4 4 4 4 5 5 8 9 8 8 9 10 8 8 11 5 3 13 10 4 6 5 7 8 6 5 0 2 3 5 5 5 6 6 11 13 13 13 18 17 17 17 17 17 18 12 7
4 4 3 3 4 5 5 6 7 7 7 7 4 3 4 4 3 4 3 4 6 6 5 6 5 5 4 5 5 5 5 6 6 7 8 8 8 10 9 9 10 11 9 6 14 7 5 5 5 4 5 3 3 1 1 3 2 5 5 6 6 5 6 7 5 7 12 16 17 18 18 16 16 11
4 4 4 4 4 5 5 6 7 7 5 6 3 4 6 6 7 4 4 3 3 4 4 4 5 5 5 5 4 4 5 6 6 7 8 8 9 10 10 11 11 10 9 7 19 11 6 4 8 6 4 4 7 6 4 2 3 3 3 4 5 6 6 6 6 6 6 7 8 12 14 18 15 15
4 3 3 3 4 5 6 5 5 9 11 8 6 8 9 8 8 6 4 3 4 4 5 5 6 5 4 5 4 4 4 5 6 7 7 8 9 8 9 9 10 11 2 3 8 8 8 6 5 10 8 7 8 2 3 4 4 4 3 5 6 5 5 6 8 7 6 7 6 14 14 19 17 16
5 5 4 4 6 6 7 8 10 11 9 7 10 12 11 8 6 4 4 5 5 5 5 6 6 6 5 5 4 4 5 6 6 8 7 7 7 7 6 7 7 6 4 3 5 8 7 8 4 6 8 9 9 10 7 4 4 7 10 6 3 3 4 6 7 6 5 4 5 7 6 8 8 9
5 6 9 10 9 9 9 10 10 9 8 10 10 9 9 7 4 4 4 4 4 5 6 6 6 5 5 6 6 6 5 4 3 3 4 5 5 5 5 6 5 4 3 3 5 7 8 8 8 4 5 6 8 8 6 5 7 6 8 8 5 7 6 5 6 7 7 6 7 7 8 7 7 7
10 10 10 10 9 8 7 5 4 4 4 7 9 9 8 4 4 4 4 4 4 5 5 5 6 5 4 4 5 4 4 3 5 4 4 4 5 4 5 6 6 5 5 4 4 4 6 7 7 6 6 7 7 9 7 5 6 5 8 10 4 4 3 5 7 6 8 8 7 6 3 4 6 7
4 5 4 4 5 6 8 8 7 6 6 5 4 4 3 3 4 3 3 4 5 5 5 5 5 5 4 4 4 4 4 5 4 5 5 4 5 4 4 4 5 3 3 3 2 2 3 4 5 5 8 7 7 9 8 6 8 5 7 7 9 9 7 8 5 6 7 6 5 4 4 4 4 3
5 5 5 5 3 3 3 3 2 2 3 3 3 3 3 3 4 4 6 6 4 5 5 6 5 5 4 4 4 4 4 5 4 3 4 4 5 4 3 3 6 4 4 4 3 3 3 4 3 4 5 6 8 5 4 6 8 5 8 7 7 1 5 10 8 6 6 7 7 6 5 6 7 5
4 3 4 5 5 6 7 7 6 6 5 5 4 4 4 3 3 3 3 4 4 4 4 5 6 6 5 5 4 5 4 4 4 3 4 4 5 3 4 7 6 4 5 4 4 4 3 2 1 2 3 2 2 3 3 6 5 4 7 7 7 5 4 6 8 7 7 8 8 7 5 4 5 7
2 3 4 4 5 5 5 6 6 6 6 6 6 5 4 4 4 4 4 4 5 4 5 5 5 5 5 6 5 4 5 5 3 3 4 4 4 5 5 7 7 6 6 6 4 5 4 2 2 1 1 1 1 3 4 7 5 5 5 6 8 7 5 7 7 10 10 11 10 8 7 7 5 7
2 3 4 4 4 4 4 5 6 6 6 6 6 7 6 5 5 5 5 5 4 5 5 5 5 5 5 6 6 6 6 6 5 4 4 5 5 6 6 8 8 6 6 6 4 4 4 3 2 2 2 2 4 5 6 6 5 4 5 5 6 8 8 8 8 9 10 8 8 10 8 7 6 6
3 3 4 4 5 5 5 5 5 6 6 6 7 7 7 7 6 6 7 6 6 7 6 6 6 6 6 6 6 6 6 6 6 5 5 5 6 7 7 8 8 7 6 6 5 4 5 5 4 5 7 7 5 7 5 9 10 7 9 6 7 7 7 8 8 8 10 9 10 10 11 12 9 7
5 5 5 5 5 6 6 6 6 6 6 6 7 6 7 7 6 6 6 6 6 6 6 6 6 6 6 6 6 6 6 6 7 6 6 6 6 7 8 8 7 7 7 7 5 5 6 6 6 6 8 9 9 14 8 4 7 8 8 9 7 7 9 8 8 8 9 9 9 10 11 9 8 9
5 6 6 6 5 5 6 6 6 6 6 6 7 7 6 6 7 7 7 6 7 6 6 6 7 6 6 6 7 7 7 7 7 7 6 6 6 7 8 8 8 7 8 7 5 6 7 7 7 8 8 11 13 10 9 2 0 7 13 8 8 8 8 8 9 11 9 8 9 7 4 5 5 6
6 6 6 7 7 6 7 6 7 7 7 7 7 7 7 7 7 7 7 7 7 7 7 7 7 7 8 7 7 7 8 7 7 7 7 7 7 8 8 8 8 7 7 7 5 6 6 7 8 9 9 9 11 11 8 7 7 3 9 16 9 9 8 11 10 8 8 8 6 3 4 4 6 7
8 7 7 7 7 7 6 7 7 7 8 8 8 7 7 8 7 7 7 6 7 7 7 8 8 8 7 7 7 7 8 9 9 8 8 8 8 8 9 8 8 8 7 8 7 6 7 9 9 10 11 12 4 2 4 3 3 1 4 12 19 15 12 11 10 10 8 6 6 7 6 4 4 1
6 6 5 5 6 6 7 7 7 7 8 8 8 8 9 8 9 9 9 10 10 9 8 7 7 7 8 7 7 8 10 9 8 8 8 8 9 9 10 9 9 8 8 10 9 8 10 11 12 10 5 3 5 3 2 2 4 4 8 7 14 17 13 14 10 10 9 9 9 7 8 6 5 3
5 5 5 5 6 7 7 7 7 6 6 6 7 7 6 7 6 11 10 10 9 9 8 8 8 7 8 7 8 8 9 9 9 9 8 9 9 9 10 9 10 8 9 11 10 10 8 4 5 6 5 5 5 7 11 10 8 5 6 4 4 12 12 12 13 11 11 13 11 8 5 4 3 2
9 8 9 8 7 7 8 9 9 9 9 8 8 7 8 8 8 8 7 6 7 7 8 8 8 8 8 8 8 8 9 9 9 10 10 9 9 10 10 9 9 9 10 11 10 7 3 5 6 7 7 8 9 9 11 12 7 6 7 7 7 5 6 12 12 14 15 18 15 10 10 9 9 8
8 8 8 8 9 9 9 9 9 9 10 9 10 10 9 9 9 8 8 9 9 9 8 8 8 8 9 8 8 9 9 9 9 10 10 9 9 9 10 10 10 9 9 9 9 5 4 5 6 8 9 11 9 9 12 10 7 6 8 9 6 8 9 6 7 11 14 16 12 12 13 10 7 5
10 10 10 10 9 9 8 9 8 9 8 9 8 9 9 9 9 9 9 9 8 8 9 8 7 7 8 9 10 11 10 10 11 10 10 10 9 9 9 10 10 10 10 8 8 6 5 7 6 6 8 8 8 10 9 7 6 6 7 9 12 9 9 9 11 11 9 7 10 15 14 15 14 14
Wind_Direction
224 225 220 223 230 228 220 216 216 218 215 218 217 211 218 225 240 266 274 264 264 279 193 217 284 213 218 227 228 223 228 236 231 223 226 236 237 226 228 233 235 235 237 238 239 238 237 237 237 236 236 235 236 236 237 238 241 246 250 253 256 259 262 261 259 258 256 255 256 261 257 252 252 249
223 225 222 224 230 228 222 218 216 212 215 214 216 216 221 215 227 238 252 268 241 269 198 214 248 221 221 221 233 215 227 234 221 222 231 235 238 234 232 236 236 236 238 238 238 238 237 236 233 232 234 235 235 234 235 235 238 241 246 252 257 260 263 266 268 269 269 266 263 261 251 249 244 244
224 225 226 224 231 225 225 220 217 215 211 216 215 219 218 220 224 233 244 260 255 226 266 239 211 231 219 213 223 226 227 231 205 212 225 238 239 239 244 244 243 240 239 239 237 237 236 235 234 232 232 232 233 234 235 236 238 244 250 254 257 258 259 262 266 270 271 267 260 254 248 252 257 256
222 227 228 226 229 226 226 221 219 219 214 215 216 217 219 223 221 229 236 241 259 242 257 263 247 206 228 209 214 231 231 232 210 211 217 228 238 241 247 249 241 239 239 238 237 236 236 235 235 234 234 235 235 236 238 239 243 247 249 252 251 252 254 259 264 266 262 257 257 252 251 252 254 259
224 226 228 228 229 224 225 220 220 221 220 214 217 218 220 224 221 220 230 241 255 258 249 255 258 242 194 242 211 232 229 236 221 219 229 220 213 234 243 247 244 238 238 238 236 235 233 234 234 234 233 234 235 235 237 237 240 240 241 244 247 248 247 250 255 256 254 252 242 245 252 259 260 258
225 226 227 229 228 223 224 221 220 222 222 219 217 217 216 222 221 216 227 238 247 257 251 260 223 251 179 245 188 218 215 236 226 221 229 217 205 221 243 245 245 236 236 238 238 237 236 236 235 235 233 232 230 229 229 228 230 232 233 234 240 247 252 254 256 255 246 248 244 244 245 248 251 254
225 225 225 229 226 224 225 221 223 221 223 219 221 221 215 222 223 221 221 232 242 248 253 246 256 229 226 225 237 214 217 227 214 219 228 228 213 214 226 242 250 241 234 237 240 238 238 240 240 239 238 235 233 231 230 228 225 224 223 226 230 234 234 242 246 248 249 247 246 245 244 244 247 251
224 225 225 227 223 224 226 223 222 222 224 222 225 224 219 222 226 224 225 225 238 242 254 232 242 228 232 239 242 225 223 223 222 219 228 231 229 228 219 224 243 246 239 238 240 240 241 242 241 239 236 233 230 230 227 225 224 224 224 225 229 228 228 231 233 235 237 238 239 238 239 242 242 241
225 226 226 226 222 223 229 227 222 220 223 225 224 224 221 223 226 229 226 230 230 240 244 250 236 237 230 240 238 205 226 236 237 244 236 227 224 236 240 227 237 253 252 243 241 237 239 240 239 238 236 232 229 226 225 223 223 223 223 224 225 226 228 230 232 233 232 234 237 242 245 244 242 241
225 226 226 225 222 223 227 228 224 223 227 224 224 224 224 223 226 229 229 229 232 236 243 242 251 229 244 247 233 208 211 218 234 248 249 254 241 237 256 240 239 235 235 237 236 239 240 240 236 235 236 234 229 224 221 220 219 221 221 221 222 223 227 230 232 235 237 235 235 233 236 237 241 243
225 226 226 225 221 225 226 229 226 223 225 222 226 222 222 223 226 230 230 227 231 233 241 240 236 242 237 238 253 225 209 216 217 227 244 246 235 227 217 245 242 230 241 241 240 239 233 224 224 231 237 238 235 229 225 222 220 221 220 219 219 223 226 229 230 233 234 234 235 235 232 230 233 237
224 224 225 224 223 224 226 228 229 221 224 221 228 222 221 223 225 230 229 229 231 235 237 239 236 228 236 232 244 105 141 223 272 238 219 237 224 230 221 218 224 229 219 241 239 241 251 252 239 235 235 236 235 231 231 228 227 225 224 221 220 223 225 224 225 225 227 229 230 231 230 228 228 231
223 224 224 224 224 222 226 226 227 223 219 220 226 224 218 223 224 230 228 230 232 239 243 250 244 251 245 236 236 233 214 213 233 212 202 233 229 242 248 241 224 229 232 238 232 242 223 236 232 221 229 230 227 228 225 231 230 228 225 218 220 223 224 226 224 222 224 225 226 226 228 229 226 224
223 223 223 225 221 221 220 224 227 229 227 224 224 224 215 221 223 227 229 230 229 234 235 235 231 234 235 226 216 229 228 226 231 198 193 231 227 231 250 264 222 217 221 240 244 239 223 228 244 225 235 236 213 215 216 221 220 222 224 221 219 222 220 222 223 224 224 224 224 225 226 227 223 217
222 223 224 225 221 221 223 223 225 225 227 228 230 234 230 220 215 222 225 226 222 225 231 232 228 232 238 230 217 218 230 223 210 213 206 232 227 226 244 259 275 216 190 215 227 244 210 203 229 223 225 222 214 213 219 219 220 222 222 223 221 220 221 220 221 221 223 224 224 224 225 224 219 211
222 224 224 225 224 222 219 220 224 227 227 227 229 231 235 238 237 234 224 229 234 233 238 239 234 235 238 240 218 226 214 233 225 222 216 218 219 233 236 245 244 215 182 211 219 248 182 201 227 239 228 216 216 214 221 224 226 228 228 227 225 222 218 220 220 218 220 222 223 223 223 220 214 209
222 222 225 227 225 227 218 220 226 226 228 230 230 231 234 237 237 241 243 243 243 237 239 244 248 233 243 249 231 202 205 200 224 218 229 227 227 230 235 241 243 228 190 200 240 259 214 184 217 236 228 214 214 218 220 226 225 225 226 224 224 220 217 218 217 215 217 219 220 220 218 214 210 205
222 221 224 228 229 225 216 214 219 225 230 232 229 233 234 235 238 238 238 240 244 242 243 245 247 236 203 243 233 214 197 200 221 216 235 217 232 233 234 236 240 75 144 190 212 262 197 186 206 237 231 205 219 212 217 222 222 223 223 221 220 219 217 215 213 212 214 215 216 215 213 210 207 204
221 223 227 231 235 231 225 220 215 223 227 228 228 223 221 222 228 230 234 237 237 240 239 242 248 250 236 241 234 215 202 214 223 220 234 226 231 253 282 303 220 186 197 183 173 253 207 184 203 237 223 208 225 214 226 224 223 222 221 218 216 216 213 210 208 212 215 215 216 210 214 213 208 205
235 220 223 225 225 224 227 238 229 229 237 239 238 242 247 243 237 237 235 235 236 237 242 244 248 249 248 252 252 235 218 217 228 238 249 243 233 254 256 261 193 226 182 192 184 240 253 166 207 242 151 195 229 216 223 228 227 217 215 211 213 207 205 206 207 209 212 215 215 213 216 218 216 209
156 129 115 116 123 132 136 74 50 25 30 248 244 244 244 246 242 241 239 240 242 243 246 251 254 258 261 264 271 274 268 262 241 254 259 245 194 236 256 261 244 241 160 209 201 220 259 162 196 234 18 232 240 211 223 222 227 222 218 216 208 202 199 199 201 199 204 207 211 212 215 219 219 213
64 63 59 60 66 45 342 27 357 339 347 282 253 251 256 266 264 265 280 292 275 256 253 253 254 254 255 257 257 255 250 245 226 210 244 218 164 237 243 260 263 261 192 199 179 186 241 118 193 200 261 278 233 219 220 207 217 223 221 217 206 197 196 197 198 201 203 206 209 212 213 215 212 196
3 346 352 357 339 312 277 273 263 253 229 257 253 265 269 265 261 258 239 256 274 283 290 282 282 280 268 262 258 257 253 248 240 228 240 222 207 242 249 248 271 280 248 168 171 200 231 159 214 161 59 273 223 167 197 201 200 204 200 200 202 196 196 199 201 203 205 203 206 206 210 211 205 147
323 322 311 318 306 292 293 311 330 329 306 266 251 236 250 257 266 275 331 279 272 280 270 278 272 270 270 266 256 242 241 246 234 236 236 235 227 238 250 244 236 249 265 135 180 193 221 181 205 188 208 239 270 34 292 224 201 203 184 187 196 199 197 201 206 207 205 203 201 201 201 205 172 150
291 300 294 297 300 305 319 331 328 323 316 314 308 275 258 248 285 333 300 293 296 287 284 280 276 268 261 252 246 240 230 225 226 227 226 223 224 230 242 246 241 251 243 179 195 195 214 189 195 141 241 229 247 35 227 198 191 202 199 195 194 194 192 203 197 205 205 203 201 195 195 173 157 161
266 267 267 266 270 278 292 294 291 294 305 316 313 283 277 292 301 290 261 266 259 262 268 265 267 264 258 261 246 239 232 229 231 232 230 226 226 228 230 233 242 253 253 190 185 193 196 211 184 176 186 193 252 209 235 221 202 193 189 215 206 197 191 193 191 200 192 198 200 198 194 174 162 169
277 282 284 286 291 288 289 290 297 296 292 291 275 276 278 280 283 284 267 258 258 260 262 260 262 257 249 254 250 236 238 228 225 232 231 234 233 236 240 241 243 252 301 116 206 207 207 228 166 191 207 201 230 168 214 226 225 152 209 212 213 193 189 177 193 190 191 191 190 198 199 191 176 182
312 312 309 308 305 294 291 290 289 288 284 272 270 276 280 281 281 274 268 254 250 248 247 249 252 251 237 240 245 234 230 232 224 228 232 239 239 241 248 249 252 259 250 187 186 217 223 237 225 215 211 203 216 223 236 195 138 175 195 193 171 199 195 193 186 173 174 169 169 190 167 176 171 177
310 308 309 313 314 312 305 297 293 292 287 279 275 273 272 273 267 259 251 256 253 251 252 255 256 252 236 232 239 242 241 250 269 263 250 239 246 244 246 249 250 255 235 200 195 204 216 225 234 205 217 223 222 235 226 227 172 194 181 161 203 204 201 197 185 175 175 176 180 181 186 166 161 163
297 299 298 297 295 294 290 288 275 267 267 265 267 273 277 274 262 259 262 264 257 264 271 268 267 269 269 259 252 247 248 245 244 240 247 240 246 233 247 258 252 225 222 205 205 211 218 226 232 217 219 226 223 241 234 230 232 175 171 187 165 53 183 187 194 186 170 175 176 175 130 126 154 153
296 296 292 281 283 279 278 273 268 268 268 269 263 258 259 260 262 261 261 264 272 277 284 285 286 289 280 278 281 270 254 251 246 224 243 244 249 233 248 248 265 242 215 179 207 217 234 244 244 226 234 239 235 235 239 224 243 141 181 178 163 193 184 176 184 183 181 162 145 130 115 134 134 137
313 315 312 310 301 287 280 264 262 268 264 262 276 269 260 262 260 264 267 273 271 272 274 279 283 286 284 285 275 276 267 261 263 238 233 237 249 231 229 246 252 220 230 179 210 203 177 200 230 247 241 250 252 256 225 230 238 177 179 178 195 134 121 174 179 177 165 145 133 164 176 172 165 152
316 324 329 336 343 355 348 347 345 343 339 331 316 306 305 288 280 280 283 286 285 284 293 289 292 293 293 287 281 275 276 267 263 244 245 245 244 253 219 246 263 258 259 224 200 214 197 198 111 190 242 275 247 304 249 244 229 155 178 181 187 185 152 178 175 156 148 140 175 172 173 187 188 177
307 329 342 339 341 336 342 335 332 332 332 326 326 323 312 310 309 297 285 276 279 282 276 276 284 286 289 290 291 285 277 276 257 236 226 246 227 241 243 257 259 248 247 250 207 207 202 138 135 124 94 161 191 190 209 235 231 156 174 168 181 185 164 169 175 170 175 181 169 173 187 196 195 183
356 340 349 340 337 327 322 320 322 324 325 325 323 321 324 314 309 308 305 298 291 289 289 285 279 281 286 287 290 287 281 276 265 243 232 241 242 244 252 256 263 254 250 253 229 186 168 186 146 254 327 314 285 240 181 186 180 174 154 182 183 178 174 178 173 174 174 176 176 186 194 193 198 192
1 359 351 344 345 343 341 336 331 330 328 328 328 326 328 329 329 325 320 316 313 305 300 296 292 288 285 283 281 275 272 267 263 251 243 226 235 241 242 246 255 257 249 248 230 169 174 189 178 191 212 236 240 270 247 193 193 169 171 190 187 188 171 172 178 170 176 187 190 185 192 200 197 177
14 8 3 359 351 349 343 339 338 333 330 327 325 323 319 319 321 317 308 303 297 292 291 291 289 288 286 287 283 278 274 270 270 257 247 240 234 238 245 249 242 246 247 243 204 174 174 183 195 197 208 231 219 240 246 90 226 211 182 194 187 182 168 166 169 181 193 187 190 198 204 200 195 191
14 7 360 358 354 349 342 336 334 333 332 331 327 323 320 320 320 318 316 317 313 310 306 302 297 294 288 287 288 286 279 270 268 265 258 247 241 241 239 248 248 237 241 239 191 185 183 188 193 204 206 214 240 247 255 184 325 232 211 195 175 172 162 160 172 170 187 192 199 204 190 214 206 179
8 6 358 353 351 347 341 336 338 331 329 323 325 324 324 324 322 322 323 317 315 313 312 307 304 301 296 291 283 284 287 284 278 272 268 257 243 248 249 245 252 246 241 245 193 189 181 202 201 206 207 217 228 235 241 230 224 184 192 197 165 149 174 177 184 185 183 182 176 95 47 56 77 137
1 0 357 354 348 342 340 343 337 333 330 331 328 328 323 319 318 314 311 312 313 308 301 295 293 291 288 284 285 282 275 274 274 274 271 268 259 248 250 249 249 251 243 243 225 202 199 210 206 207 211 222 241 61 88 91 58 77 169 198 188 177 177 173 182 175 177 166 138 132 111 112 81 70
354 350 344 340 337 337 340 333 328 327 324 324 320 321 322 323 323 325 327 323 317 309 305 301 298 296 293 291 287 287 287 281 275 272 273 270 266 260 255 251 254 244 247 250 240 218 218 217 219 218 205 84 123 133 62 247 220 166 191 199 200 195 183 187 172 169 163 152 147 148 141 141 117 125
340 336 333 341 346 331 320 313 311 308 306 308 309 309 307 309 308 308 306 304 302 302 299 299 296 291 291 289 287 281 280 282 282 276 271 272 273 268 256 247 252 250 242 252 250 245 237 191 179 174 160 155 160 178 225 232 231 190 181 176 169 194 179 179 185 176 157 151 145 138 109 81 106 137
356 350 346 337 331 331 341 343 340 336 331 330 323 320 318 311 305 300 301 305 308 304 301 302 302 299 293 285 277 273 276 279 281 281 279 272 268 267 267 255 246 245 245 252 255 252 170 161 168 170 183 194 208 207 221 229 216 166 168 159 168 152 159 173 162 151 158 169 168 162 166 157 155 185
344 339 335 350 357 353 347 338 333 330 327 325 323 321 314 309 307 309 313 311 306 299 295 293 294 291 291 289 289 282 275 272 269 271 273 275 273 272 270 267 257 248 245 248 253 228 167 175 183 185 184 209 209 212 228 222 202 183 173 166 157 151 145 140 137 150 159 171 155 113 107 103 110 121
351 351 351 346 343 339 337 330 324 318 317 318 316 317 320 325 325 324 317 308 303 302 300 296 299 311 318 319 318 313 309 306 297 286 276 270 265 265 266 265 265 257 251 243 247 227 177 183 193 199 211 216 214 219 230 221 195 164 166 160 160 163 158 154 145 141 149 153 160 143 135 128 122 116